• In Lithuania
  • List of Countries
  • For 7 days
  • Water Temperature
  • Satellite Maps
  • Weather Map
  • Weather Widgets
  • user-avatar
    Login

    Hourly Weather Casper

    Today, 26 May, Saturday

    Time Temperature Precipitation Wind Pressure Humidity
    00:00 +19°C° 0 mm 3 mps 629 mmHg 37%
    01:00 +18°C° 0 mm 3 mps 628 mmHg 39%
    02:00 +18°C° 0 mm 2 mps 628 mmHg 42%
    03:00 +17°C° 0 mm 2 mps 628 mmHg 42%
    04:00 +17°C° 0 mm 2 mps 627 mmHg 42%
    05:00 +17°C° 0 mm 2 mps 627 mmHg 42%
    06:00 +19°C° 0 mm 3 mps 628 mmHg 35%
    07:00 +22°C° 0 mm 5 mps 629 mmHg 28%
    08:00 +26°C° 0 mm 6 mps 630 mmHg 21%
    09:00 +28°C° 0 mm 6 mps 630 mmHg 19%
    10:00 +29°C° 0 mm 7 mps 630 mmHg 16%
    11:00 +32°C° 0 mm 7 mps 630 mmHg 14%
    12:00 +32°C° 0 mm 7 mps 630 mmHg 13%
    13:00 +33°C° 0 mm 7 mps 629 mmHg 12%
    14:00 +33°C° 0 mm 7 mps 629 mmHg 11%
    15:00 +33°C° 0 mm 6 mps 629 mmHg 11%
    16:00 +33°C° 0 mm 6 mps 628 mmHg 11%
    17:00 +33°C° 0 mm 5 mps 628 mmHg 12%
    18:00 +30°C° 0 mm 4 mps 628 mmHg 16%
    19:00 +28°C° 0 mm 4 mps 627 mmHg 20%
    20:00 +26°C° 0 mm 3 mps 627 mmHg 25%
    21:00 +25°C° 0.1 mm 3 mps 627 mmHg 29%
    22:00 +23°C° 0.1 mm 4 mps 627 mmHg 34%
    23:00 +22°C° 0.1 mm 4 mps 627 mmHg 39%

    Tomorrow, 27 May, Sunday

    Time Temperature Precipitation Wind Pressure Humidity
    00:00 +22°C° 0 mm 4 mps 627 mmHg 40%
    01:00 +21°C° 0 mm 3 mps 627 mmHg 41%
    02:00 +20°C° 0 mm 2 mps 627 mmHg 42%
    03:00 +19°C° 0 mm 3 mps 627 mmHg 48%
    04:00 +18°C° 0 mm 4 mps 627 mmHg 54%
    05:00 +16°C° 0 mm 5 mps 627 mmHg 60%
    06:00 +17°C° 0 mm 5 mps 628 mmHg 60%
    07:00 +19°C° 0 mm 4 mps 628 mmHg 61%
    08:00 +19°C° 0 mm 4 mps 629 mmHg 62%
    09:00 +21°C° 0.2 mm 4 mps 629 mmHg 57%
    10:00 +22°C° 0.2 mm 5 mps 630 mmHg 52%
    11:00 +25°C° 0.2 mm 5 mps 630 mmHg 47%
    12:00 +24°C° 1.4 mm 6 mps 630 mmHg 48%
    13:00 +24°C° 1.4 mm 6 mps 630 mmHg 49%
    14:00 +24°C° 1.4 mm 7 mps 629 mmHg 50%
    15:00 +22°C° 3.3 mm 6 mps 629 mmHg 56%
    16:00 +20°C° 3.3 mm 5 mps 629 mmHg 63%
    17:00 +19°C° 3.3 mm 4 mps 629 mmHg 70%
    18:00 +18°C° 0.1 mm 4 mps 629 mmHg 72%
    19:00 +18°C° 0.1 mm 3 mps 629 mmHg 74%
    20:00 +17°C° 0.1 mm 3 mps 629 mmHg 76%
    21:00 +17°C° 0.5 mm 4 mps 630 mmHg 79%
    22:00 +16°C° 0.5 mm 5 mps 630 mmHg 81%
    23:00 +15°C° 0.5 mm 5 mps 631 mmHg 84%

    Day after tomorrow, 28 May, Monday

    Time Temperature Precipitation Wind Pressure Humidity
    00:00 +15°C° 0.6 mm 5 mps 630 mmHg 86%
    01:00 +14°C° 0.6 mm 4 mps 630 mmHg 88%
    02:00 +14°C° 0.6 mm 3 mps 630 mmHg 90%
    03:00 +14°C° 0 mm 3 mps 630 mmHg 91%
    04:00 +14°C° 0 mm 3 mps 630 mmHg 91%
    05:00 +13°C° 0 mm 4 mps 629 mmHg 91%
    06:00 +14°C° 0.1 mm 4 mps 629 mmHg 88%
    07:00 +14°C° 0.1 mm 4 mps 630 mmHg 86%
    08:00 +14°C° 0.1 mm 4 mps 630 mmHg 83%
    09:00 +15°C° 0.6 mm 4 mps 630 mmHg 80%
    10:00 +15°C° 0.6 mm 4 mps 630 mmHg 76%
    11:00 +17°C° 0.6 mm 3 mps 630 mmHg 72%
    12:00 +18°C° 0.9 mm 4 mps 630 mmHg 65%
    13:00 +19°C° 0.9 mm 4 mps 631 mmHg 58%
    14:00 +21°C° 0.9 mm 4 mps 631 mmHg 52%
    15:00 +20°C° 0.5 mm 4 mps 630 mmHg 53%
    16:00 +20°C° 0.5 mm 3 mps 630 mmHg 55%
    17:00 +19°C° 0.5 mm 3 mps 630 mmHg 57%
    18:00 +18°C° 0 mm 2 mps 630 mmHg 62%
    19:00 +18°C° 0 mm 1 mps 629 mmHg 66%
    20:00 +16°C° 0 mm 1 mps 629 mmHg 71%
    21:00 +16°C° 0 mm 1 mps 629 mmHg 71%
    22:00 +16°C° 0 mm 1 mps 628 mmHg 71%
    23:00 +15°C° 0 mm 1 mps 628 mmHg 71%

    29 May, Tuesday

    Time Temperature Precipitation Wind Pressure Humidity
    00:00 +15°C° 0 mm 1 mps 628 mmHg 71%
    01:00 +15°C° 0 mm 1 mps 628 mmHg 70%
    02:00 +15°C° 0 mm 2 mps 628 mmHg 70%
    03:00 +14°C° 0 mm 2 mps 628 mmHg 70%
    04:00 +14°C° 0 mm 2 mps 628 mmHg 71%
    05:00 +14°C° 0 mm 2 mps 628 mmHg 71%
    06:00 +16°C° 0.1 mm 2 mps 628 mmHg 65%
    07:00 +17°C° 0.1 mm 2 mps 629 mmHg 60%
    08:00 +18°C° 0.1 mm 3 mps 629 mmHg 54%
    09:00 +19°C° 0.3 mm 3 mps 629 mmHg 50%
    10:00 +20°C° 0.3 mm 3 mps 630 mmHg 47%
    11:00 +21°C° 0.3 mm 3 mps 630 mmHg 43%
    12:00 +22°C° 0.2 mm 3 mps 630 mmHg 41%
    13:00 +22°C° 0.2 mm 3 mps 630 mmHg 39%
    14:00 +24°C° 0.2 mm 3 mps 629 mmHg 37%
    15:00 +24°C° 0.1 mm 3 mps 629 mmHg 37%
    16:00 +24°C° 0.1 mm 3 mps 629 mmHg 38%
    17:00 +22°C° 0.1 mm 3 mps 629 mmHg 38%
    18:00 +21°C° 0 mm 3 mps 629 mmHg 44%
    19:00 +19°C° 0 mm 2 mps 629 mmHg 49%
    20:00 +18°C° 0 mm 2 mps 628 mmHg 54%
    21:00 +17°C° 0 mm 2 mps 628 mmHg 56%
    22:00 +17°C° 0 mm 2 mps 628 mmHg 58%
    23:00 +16°C° 0 mm 2 mps 628 mmHg 60%

    30 May, Wednesday

    Time Temperature Precipitation Wind Pressure Humidity
    00:00 +16°C° 0 mm 2 mps 628 mmHg 61%
    01:00 +15°C° 0 mm 2 mps 628 mmHg 63%
    02:00 +15°C° 0 mm 2 mps 627 mmHg 65%
    03:00 +14°C° 0 mm 2 mps 627 mmHg 66%
    04:00 +14°C° 0 mm 2 mps 627 mmHg 68%
    05:00 +14°C° 0 mm 1 mps 627 mmHg 70%
    06:00 +16°C° 0 mm 2 mps 628 mmHg 63%
    07:00 +18°C° 0 mm 2 mps 628 mmHg 56%
    08:00 +20°C° 0 mm 3 mps 629 mmHg 48%
    09:00 +22°C° 0.1 mm 3 mps 629 mmHg 44%
    10:00 +23°C° 0.1 mm 4 mps 629 mmHg 40%
    11:00 +26°C° 0.1 mm 4 mps 629 mmHg 35%
    12:00 +27°C° 0 mm 4 mps 629 mmHg 33%
    13:00 +27°C° 0 mm 5 mps 629 mmHg 31%
    14:00 +28°C° 0 mm 5 mps 628 mmHg 29%
    15:00 +28°C° 0 mm 4 mps 628 mmHg 28%
    16:00 +28°C° 0 mm 4 mps 628 mmHg 28%
    17:00 +28°C° 0 mm 4 mps 628 mmHg 27%
    18:00 +27°C° 0 mm 4 mps 627 mmHg 32%
    19:00 +25°C° 0 mm 4 mps 627 mmHg 37%
    20:00 +22°C° 0 mm 3 mps 626 mmHg 41%
    21:00 +21°C° 0 mm 4 mps 626 mmHg 44%
    22:00 +20°C° 0 mm 4 mps 626 mmHg 47%
    23:00 +19°C° 0 mm 4 mps 626 mmHg 50%

    31 May, Thursday

    Time Temperature Precipitation Wind Pressure Humidity
    00:00 +19°C° 0 mm 4 mps 626 mmHg 52%
    01:00 +19°C° 0 mm 4 mps 626 mmHg 54%
    02:00 +18°C° 0 mm 4 mps 626 mmHg 56%
    03:00 +18°C° 0 mm 4 mps 626 mmHg 54%
    04:00 +18°C° 0 mm 4 mps 626 mmHg 52%
    05:00 +17°C° 0 mm 4 mps 626 mmHg 50%
    06:00 +20°C° 0 mm 4 mps 627 mmHg 45%
    07:00 +22°C° 0 mm 5 mps 628 mmHg 39%
    08:00 +25°C° 0 mm 5 mps 628 mmHg 33%
    09:00 +27°C° 0 mm 5 mps 629 mmHg 29%
    10:00 +28°C° 0 mm 5 mps 629 mmHg 25%
    11:00 +30°C° 0 mm 5 mps 629 mmHg 21%
    12:00 +32°C° 0 mm 6 mps 629 mmHg 19%
    13:00 +32°C° 0 mm 6 mps 629 mmHg 18%
    14:00 +33°C° 0 mm 7 mps 628 mmHg 16%
    15:00 +32°C° 0 mm 7 mps 628 mmHg 17%
    16:00 +32°C° 0 mm 8 mps 628 mmHg 17%
    17:00 +32°C° 0 mm 8 mps 628 mmHg 17%
    18:00 +29°C° 0 mm 7 mps 627 mmHg 20%
    19:00 +27°C° 0 mm 5 mps 627 mmHg 23%
    20:00 +25°C° 0 mm 4 mps 627 mmHg 25%
    21:00 +23°C° 0 mm 4 mps 627 mmHg 25%
    22:00 +22°C° 0 mm 4 mps 627 mmHg 25%
    23:00 +22°C° 0 mm 4 mps 627 mmHg 24%
    Show more